Погода в Кузнецах

Россия / Кировская область     58°39′43″N   49°01′36″E
темп.,
°C
ветер,
м/с
пор.,
м/с
влажн.,
%
обл.,
%
осадки,
мм/ч
давл.,
гПа
погр.,
м
21 апреля, ср
ср2100:00−2вюв26895 0.0 103091
03:00−1вюв31082100 0.0 1029183
06:00+1юв41363100 0.0 1027420
09:00+7юв61446100 0.0 10251072
12:00+9ююв71543100 0.0 10231354
15:00+6ююв61555100 0.3 10221255
18:00+2ююв71787100 1.3 10221090
21:00+2ююв61596100 4.6 1020885
22 апреля, чт
чт2200:00+2ююв61494100 0.4 1019837
03:00+2ююв51397100 0.9 1018782
06:00+3ю61396100 0.4 1018951
09:00+4ю51192100 0.5 10191005
12:00+6ююз498044 0.1 1020954
15:00+9ю4974100 0.2 10201348
18:00+7ююз51192100 2.3 10201117
21:00+6ююз399228 4.1 1021329
23 апреля, пт
пт2300:00+3ююз269711 0.1 1023168
03:00+2ююз23965 0.1 102442
06:00+4ю25959 0.0 1024141
09:00+9ю247511 0.0 1024690
12:00+11ююв3461100 0.1 10241477
15:00+10ююв3573100 0.1 1024655
18:00+8юв378141 0.0 1024370
21:00+6юв3889100 0.0 1024286
24 апреля, сб
сб2400:00+6юв399188 0.0 1023288
03:00+5вюв3793100 0.0 1022262
06:00+5юв3990100 0.0 1022451
09:00+8вюв4671100 0.0 1020843
12:00+9в466790 0.0 10171098
15:00+9в3676100 0.0 1015848
18:00+7в3785100 0.0 1014600
21:00+6вюв3892100 0.1 1012450
25 апреля, вс
вс2500:00+6вюв3797100 0.1 1010435
03:00+5юв3797100 0.3 1008426
06:00+6вюв4994100 0.0 1006542
09:00+6ююв4886100 0.1 10041140
12:00+4юз31096100 3.6 1005678
15:00+8зюз596693 3.9 10061510
18:00+7юз496789 0.6 1007675
21:00+3ююз310865 0.7 1009255